Location: ???????
(55.4362°N, 38.1183°E)
Time: 17:30:46
(UTC+00:00)

Cosmos 2278 Rocket - Pass Details

Date: 26 October 2021
Orbit: 841 x 845 km, 71.0° (Epoch: 28 November)

Event Time Altitude Azimuth Distance (km) Brightness Sun altitude
Rises 15:31:46 0° 323° (NW) 3,419 5.9 -13.3°
Reaches altitude 10° 15:34:27 10° 332° (NNW) 2,480 5.0 -13.6°
Maximum altitude 15:39:39 35° 38° (NE) 1,345 2.9 -14.4°
Enters shadow 15:42:30 22° 87° (E) 1,768 3.2 -14.8°
